Location: Cincinnati Observatory Center
(39.1389°N, 84.4225°W)
Time: 18:19:11
(UTC-04:00)

Daily predictions for brighter satellites

Satellite Brightness Start Highest point End
(mag) Time Altitude Azimuth Time Altitude Azimuth Time Altitude Azimuth
Thor Agena Rocket 3.9 19:48:55 10° NNE 19:53:56 44° E 19:58:50 10° S
Cosmos 1758 Rocket 3.6 19:50:20 10° N 19:54:51 72° E 19:59:19 10° SSE
Cosmos 2084 3.7 19:50:51 10° SW 19:54:56 67° NW 19:58:50 10° NNE
Cosmos 1726 Rocket 3.5 19:52:53 10° S 19:57:14 80° E 20:01:35 10° N
DMSP B5D1-3 4.5 19:52:44 10° NNE 19:57:50 67° ESE 20:02:53 10° S
USA 234 3.5 19:53:04 10° SE 19:59:37 75° SW 20:06:12 10° NW
CZ-4 R/B 3.9 19:56:19 10° SSW 19:59:56 29° W 20:03:38 10° NW
ALOS 2.3 19:57:03 10° SSE 20:01:38 62° ENE 20:06:15 10° N
BREEZE M DEB (TANK) 4.1 19:54:10 10° WNW 20:03:09 48° NNE 20:06:19 10° E
Cosmos 2181 Rocket 4.0 19:57:56 10° N 20:04:08 80° E 20:10:15 10° S
Cosmos 1814 Rocket 4.4 20:00:31 10° SSW 20:05:39 69° WNW 20:10:47 10° NNE
Cosmos 990 Rocket 4.0 20:00:45 10° NNW 20:05:56 88° WSW 20:11:04 10° SSE
Cosmos 1898 Rocket 4.4 20:01:10 10° NNW 20:06:13 54° WSW 20:11:14 10° S
NOAA 12 4.1 20:01:24 10° SSE 20:06:38 80° ENE 20:11:55 10° N
SJ 16-02 3.0 20:04:14 10° NNE 20:06:52 15° ENE 20:09:12 11° E
Cosmos 1656 Rocket 3.7 20:01:43 10° NNW 20:07:20 64° ENE 20:12:50 10° SSE
SJ-6B 3.7 20:04:18 10° SE 20:07:45 29° ENE 20:11:11 10° N
SPOT 3 Rocket 4.0 20:03:03 10° S 20:08:10 69° WSW 20:13:20 10° NNW
FENGYUN 3A 3.6 20:04:59 10° SSE 20:10:19 73° ENE 20:15:41 10° N
Cosmos 1953 4.2 20:11:47 12° E 20:11:59 12° E 20:13:29 10° ENE
H-2A R/B 3.3 20:09:27 10° SE 20:12:52 36° ENE 20:16:21 10° N
Cosmos 2074 Rocket 4.1 20:08:10 10° SSE 20:14:10 55° E 20:20:12 10° NNE
Cosmos 1125 Rocket 4.2 20:12:02 10° N 20:16:51 34° ENE 20:21:40 10° SE
FREGAT/IRIS 2.7 20:16:18 10° SSE 20:19:15 53° ENE 20:22:13 10° N
Cosmos 2228 3.1 20:14:57 10° S 20:19:18 88° W 20:23:40 10° N
Cosmos 1356 Rocket 3.5 20:18:40 10° N 20:22:58 64° E 20:27:14 10° SSE
Geosat 4.0 20:18:36 10° SE 20:23:35 70° ENE 20:28:36 10° NNW
Envisat 4.3 20:21:01 14° ESE 20:23:45 21° ENE 20:27:30 10° NNE
Cosmos 1544 3.4 20:21:32 10° SSE 20:24:57 41° E 20:28:22 10° NNE
ATLAS 2AS CENTAUR R/B 4.3 20:25:41 10° NNW 20:31:53 23° NE 20:36:22 15° ENE
COSMOS 2406 3.2 20:26:45 10° SSW 20:32:26 80° ESE 20:38:12 10° NNE
Meteor 1-22 Rocket 4.1 20:27:37 10° S 20:33:19 74° E 20:38:48 10° NNE
Cosmos 1378 4.2 20:29:52 10° NNW 20:33:31 48° W 20:37:08 10° SSW
Cosmos 1707 4.0 20:29:49 10° NNW 20:33:34 44° W 20:37:18 10° SSW
Cosmos 1766 3.1 20:32:42 10° S 20:36:37 76° E 20:40:32 10° N
Meteor 2-5 Rocket 4.2 20:31:23 10° NNW 20:37:11 67° W 20:42:49 10° S
Cosmos 1812 Rocket 3.9 20:33:22 10° SSE 20:37:36 44° E 20:41:52 10° NNE
Cosmos 841 Rocket 4.3 20:34:12 10° SW 20:39:12 52° WNW 20:44:14 10° N
Meteor 2-8 Rocket 4.5 20:33:31 10° N 20:39:34 58° E 20:45:32 10° SSE
Resurs 01 Rocket 2.3 20:38:07 21° ESE 20:40:20 33° ENE 20:44:18 10° N
In-Cosmos 22 4.2 20:34:52 10° N 20:40:35 68° E 20:46:19 10° SSE
NOSS 3-1 (A) 4.1 20:34:22 10° NNW 20:42:08 86° ENE 20:50:39 10° SSE
Cosmos 1674 4.1 20:39:38 10° NNE 20:41:52 20° ENE 20:41:52 20° ENE
GP-B 3.6 20:38:55 10° NNE 20:43:01 36° E 20:46:08 16° SSE
MOS 1-B Rocket 4.4 20:40:08 15° SE 20:44:40 39° ENE 20:49:52 10° N
Nadezhda 3 Rocket 4.3 20:38:43 10° N 20:44:43 44° ENE 20:50:14 12° SSE
FengYun 1-2 T 4.3 20:41:21 10° SSE 20:46:57 86° WSW 20:52:33 10° NNW
SL-27 R/B 2.6 20:46:38 10° S 20:50:06 49° ESE 20:53:39 10° NNE
NOSS 3-1 (C) 4.4 20:42:25 10° NW 20:50:07 68° WSW 20:58:32 10° SSE
Meteor 2-19 Rocket 4.4 20:44:47 10° S 20:50:44 63° E 20:56:42 10° NNE
Cosmos 540 Rocket 3.5 20:46:55 10° SSW 20:52:01 82° WNW 20:57:09 10° NNE
Cosmos 2184 Rocket 4.2 20:46:48 10° SSW 20:53:05 76° W 20:59:29 10° N
Cosmos 1758 3.5 20:52:38 10° SSE 20:56:30 48° E 21:00:22 10° NNE
Elektron 1 4.3 20:54:35 10° NNW 20:57:32 40° NE 20:57:32 40° NE
HJ-1C 3.7 20:54:37 10° S 20:57:56 65° W 21:01:17 10° NNW
Cosmos 1610 Rocket 4.5 20:51:59 10° S 20:58:20 84° E 21:04:45 10° N
Cosmos 1805 3.3 21:04:34 10° SSW 21:08:27 76° W 21:12:21 10° N
Okean 3 Rocket 4.3 21:04:33 10° N 21:08:04 35° ENE 21:08:04 35° ENE
Cosmos 1939 Rocket 4.2 21:13:42 26° NNE 21:13:42 26° NNE 21:15:52 10° N
SL-8 Rocket 4.4 21:14:55 37° E 21:14:55 37° E 21:20:23 10° NNE
CZ-2D R/B 3.3 21:13:42 34° S 21:15:15 74° WSW 21:19:05 10° NNW
Cosmos 292 Rocket 3.6 21:11:02 10° SSW 21:15:52 77° ESE 21:20:45 10° NNE
Cosmos 2278 4.2 21:14:32 10° N 21:19:49 39° ENE 21:20:04 38° ENE
Spot 2 Rocket 3.4 21:28:02 41° S 21:29:52 86° WSW 21:34:56 10° NNW
ISS -2.4 21:27:44 10° WSW 21:30:17 38° WNW 21:30:17 38° WNW
Milstar 3 Cent rocket 3.4 21:27:19 10° SW 21:30:39 22° S 21:30:39 22° S
Cosmos 962 Rocket 4.4 21:26:47 10° S 21:33:08 88° E 21:39:33 10° N
Cosmos 1656 4.2 21:30:58 10° N 21:35:48 42° NE 21:35:48 42° NE
Cosmos 1697 Rocket 3.8 21:34:33 10° N 21:38:32 30° NE 21:38:32 30° NE
Cosmos 1980 Rocket 3.9 21:37:10 10° N 21:39:52 19° NNE 21:39:52 19° NNE
SJ 16-02 2.2 21:41:31 10° NNW 21:45:43 46° WSW 21:46:14 44° SW
Cosmos 1953 3.4 21:47:22 41° WSW 21:47:56 44° W 21:51:51 10° N
Gblst 52 Del rocket 4.5 21:40:55 10° NW 21:48:24 89° SSW 21:49:25 67° SE
Envisat 3.9 22:01:14 37° SW 22:02:26 44° W 22:07:17 10° NNW
Resurs 01 Rocket 3.9 22:15:42 19° WSW 22:16:51 21° W 22:20:11 10° NW
FALCON 9 R/B 3.3 22:13:18 10° W 22:15:43 36° SW 22:15:43 36° SW
ATLAS 2AS CENTAUR R/B 2.9 22:16:12 10° NNW 22:23:48 78° NNE 22:23:48 78° NNE
H-2A R/B 4.4 22:28:13 14° N 22:28:13 14° N 22:28:56 10° N
